Regional Weather Roundup
Issued by NWS

Home | Current Version | Previous Version | Graphics & Text | Print | Product List | Glossary On
Versions: 1 2 3 4 5 6 7 8 9 10 11 12 13 14 15 16 17 18 19 20 21 22 23 24 25 26 27 28 29 30 31 32 33 34 35 36 37 38 39 40 41 42 43 44 45 46 47 48 49 50
000
ASUS43 KDMX 291507
RWRIA

WEATHER ROUNDUP FOR IOWA
NATIONAL WEATHER SERVICE DES MOINES IA
1000 AM CDT MON JUN 29 2015

NOTE: "FAIR" INDICATES FEW OR NO CLOUDS BELOW 12,000 FEET WITH NO
SIGNIFICANT WEATHER AND/OR OBSTRUCTIONS TO VISIBILITY.

* - THESE STATIONS ARE NOT NWS STATIONS...THUS NOT UNDER NWS
QUALITY CONTROL.  THEY ALSO DO NOT REPORT WEATHER SUCH
AS PRECIPITATION OR FOG.

IAZ001>003-012>014-020>022-031>034-043>046-291600-
   NORTHWEST IOWA

CITY           SKY/WX    TMP DP  RH WIND       PRES   REMARKS
CARROLL *      SUNNY     75  64  69 NW12      29.92R
CHEROKEE *     SUNNY     75  68  78 NW6       29.92F
DENISON *      SUNNY     73  64  73 CALM      29.92S
LE MARS *      SUNNY     73  64  73 W6        29.95S
ORANGE CITY *  SUNNY     72  63  73 NW6       29.95R
SHELDON *      SUNNY     73  72  94 NW8       29.93S
SIOUX CITY     SUNNY     74  62  66 NW8       29.95S
SPENCER        SUNNY     77  64  64 NW10      29.92S
STORM LAKE *   SUNNY     75  64  69 NW12      29.94S
$$

IAZ055>058-069>071-079>083-090>094-291600-
   SOUTHWEST IOWA

CITY           SKY/WX    TMP DP  RH WIND       PRES   REMARKS
ATLANTIC *     SUNNY     73  64  73 N6        29.93S
AUDUBON *      SUNNY     75  66  73 NW7       29.94R
CLARINDA *     SUNNY     77  63  61 W8        29.94S
COUNCIL BLFS * SUNNY     73  63  68 NW7       29.95S
CRESTON *      SUNNY     75  63  64 W10       29.93R
HARLAN  *      SUNNY     73  70  88 NW7       29.97S
LAMONI         SUNNY     78  65  63 NW12      29.91S HX  80
RED OAK *      SUNNY     75  64  69 NW8       29.94S
SHENANDOAH *   SUNNY     75  64  69 NW7       29.94S
$$

IAZ047>049-059>061-072>074-084-291600-
   CENTRAL IOWA

CITY           SKY/WX    TMP DP  RH WIND       PRES   REMARKS
AMES           SUNNY     75  65  70 NW9       29.88S
ANKENY *       SUNNY     75  66  73 NW8       29.88R
CHARITON *     SUNNY     75  66  73 NW9       29.89S
DES MOINES     MOSUNNY   78  64  61 N9        29.88R HX  80
GRINNELL*      SUNNY     72  66  83 NW5       29.87S
KNOXVILLE *    SUNNY     73  66  78 W7        29.87S
MARSHALLTOWN   SUNNY     73  66  78 NW5       29.86S
PELLA *        SUNNY     75  70  83 NW8       29.89R
PERRY *          N/A     75  64  69 NW10      29.90S
$$

IAZ004>006-015-016-023>025-035-036-291600-
   NORTH CENTRAL IOWA

CITY           SKY/WX    TMP DP  RH WIND       PRES   REMARKS
ALGONA *       SUNNY     73  64  73 NW10      29.90S
CLARION *      SUNNY     73  64  73 NW10      29.88S
ESTHERVILLE    SUNNY     73  64  73 NW8       29.91R
FORT DODGE *   SUNNY     73  64  73 NW6       29.90F
MASON CITY     SUNNY     75  67  76 NW9       29.89R
FOREST CITY *  SUNNY     70  64  83 NW8       29.88S
IOWA FALLS *     N/A     73  64  73 NW7       29.89R
$$

IAZ007>011-017>019-026>030-037>042-050>054-066-291600-
   NORTHEAST IOWA

CITY           SKY/WX    TMP DP  RH WIND       PRES   REMARKS
CEDAR RAPIDS   SUNNY     71  65  81 NW8       29.84F
CHARLES CITY * SUNNY     72  70  94 NW7       29.87R
CLINTON *      CLOUDY    64  63  94 SW5       29.87S
DECORAH *        N/A    N/A N/A N/A MISG        N/A
DUBUQUE        PTSUNNY   69  63  81 N7        29.84S
MONTICELLO *   CLOUDY    68 -38   1 CALM      29.84S
OELWEIN *      SUNNY     72  64  78 NW6       29.86S
WATERLOO       SUNNY     73  65  75 N7        29.84S
$$

IAZ064-065-067-068-078-291600-
   EAST CENTRAL IOWA

CITY           SKY/WX    TMP DP  RH WIND       PRES   REMARKS
DAVENPORT      CLOUDY    66  62  87 NW3       29.86R
IOWA CITY      MOSUNNY   70  64  81 MISG      29.86S
MT. PLEASANT * CLOUDY    72  64  78 W3        29.87S
MUSCATINE *    CLOUDY    66  64  94 NW5       29.86S
QUAD CITIES    CLOUDY    69  63  81 NW7       29.84S
$$

IAZ062-063-075>077-085>089-095>099-291600-
   SOUTHEAST IOWA

CITY           SKY/WX    TMP DP  RH WIND       PRES   REMARKS
BURLINGTON     CLOUDY    67  64  90 NW5       29.86S
FAIRFIELD *    MOSUNNY   73  66  78 NW8       29.87S
FORT MADISON * CLOUDY    68  68 100 NW6       29.87F
KEOKUK *       CLOUDY    70  66  88 NW6       29.86F
OSKALOOSA *      N/A     73  66  78 NW5       29.87S
CENTERVILLE *  SUNNY     75  66  73 W7        29.90S
OTTUMWA        SUNNY     74  68  81 NW6       29.85S
WASHINGTON *   PTSUNNY   72  66  83 W5        29.87F
$$

ABBREVIATIONS USED IN REMARKS
   TC - TEMPERATURES IN CELSIUS
  WCI - WIND CHILL INDEX
   HX - HEAT INDEX
  VSB - VISIBILITY
$$



USA.gov is the U.S. government's official web portal to all federal, state and local government web resources and services.